Home > Weather > Hollywood > Past weeks

Flag for U.S.A. Weather for the Past 2 Weeks in Hollywood, California, U.S.A.

Now
80 °F

Sunny.


Feels Like: 79 °F
Forecast: 56 / 82 °F
Wind: 6 mph from South

Location: Bob Hope Airport

Current Time: Feb 12, 2016 at 6:34:08 PM

Latest Report: Feb 12, 2016 at 4:53 PM


Visibility: 10 mi

Pressure: 30.00 "Hg

Humidity: 17%

Dew point: 32 °F

Location of HollywoodLocation

Historic Weather in Hollywood — Graph

°F

Hollywood Temperature Yesterday

Maximum temperature yesterday: 87 °F (at 2:53 PM)
Minimum temperature yesterday: 52 °F (at 6:53 AM)
Average temperature yesterday: 69 °F

High & Low Weather Summary for the Past Weeks

 TemperatureHumidityPressure
High87 °F (Feb 9, 2:53 PM)94% (Jan 31, 7:59 AM)30.34 "Hg (Jan 31, 7:59 AM)
Low39 °F (Feb 2, 5:53 AM)7% (Feb 7, 2:53 PM)29.54 "Hg (Jan 31, 1:53 PM)
Average60 °F39%30.09 "Hg
* Reported Jan 28 4:53 PM — Feb 12 4:53 PM, Hollywood, Weather by CustomWeather, © 2016

Note: Actual official high and low records may vary slightly from our data, if they occured in-between our weather recording intervals... More about our weather records

Advertising

Hollywood Weather History for the Previous 24 Hours

 ConditionsComfort  
Time TempWeatherWind HumidityBarometerVisibility
4:53 PM
Fri, Feb 12
80 °FSunny.6 mph17%30.00 "Hg10 mi
3:53 PM83 °FSunny.6 mph16%29.99 "Hg10 mi
2:53 PM85 °FSunny.5 mph13%29.99 "Hg10 mi
1:53 PM84 °FSunny.No wind13%30.00 "Hg10 mi
12:53 PM82 °FSunny.No wind15%30.03 "Hg10 mi
11:53 AM80 °FSunny.No wind15%30.06 "Hg10 mi
10:53 AM77 °FSunny.No wind22%30.09 "Hg10 mi
9:53 AM70 °FSunny.No wind30%30.09 "Hg10 mi
8:53 AM64 °FSunny.No wind38%30.09 "Hg10 mi
7:53 AM57 °FSunny.No wind47%30.09 "Hg10 mi
6:53 AM51 °FSunny.No wind52%30.08 "Hg10 mi
5:53 AM53 °FClear.No wind47%30.07 "Hg10 mi
4:53 AM53 °FClear.No wind48%30.06 "Hg10 mi
3:53 AM54 °FClear.No wind49%30.06 "Hg10 mi
2:53 AM55 °FClear.No wind47%30.06 "Hg10 mi
1:53 AM56 °FClear.No wind47%30.07 "Hg10 mi
12:53 AM58 °FClear.No wind44%30.08 "Hg10 mi
11:53 PM
Thu, Feb 11
61 °FClear.No wind36%30.09 "Hg10 mi
10:53 PM62 °FClear.No wind38%30.08 "Hg10 mi
9:53 PM63 °FClear.3 mph38%30.08 "Hg10 mi
8:53 PM67 °FClear.No wind31%30.08 "Hg10 mi
7:53 PM69 °FClear.5 mph29%30.07 "Hg10 mi
6:53 PM72 °FClear.No wind29%30.07 "Hg10 mi
Weather by CustomWeather, © 2016

See weather overviewHow to use our weather pages